Zurück zum Katalog

ATLAS 5 CENTAUR R/B

AktivHEO
NORAD 39653·ROCKET BODY·🇺🇸 United States

Gestartet Apr 10, 2014 von Cape Canaveral Space Force Station

Loading…

Nächste Überflüge (nächste 24 Stunden)

TLE

AktuellSource: Space-Track

Epoche: Sep 14, 2026, 10:05 UTC

1 39653U 14020B   26257.42075931 -.00000151  00000-0  00000-0 0  9994
2 39653  10.4653 226.7281 4821894 325.8987  10.6934  1.86029366 47648

Verfolge ATLAS 5 CENTAUR R/B in Echtzeit mit AllMySat

Download on the App Store